Page, AZ

9:01 PM MST on November 21, 2017 (GMT -0700)
Page Municipal

Weather History for KPGA - November, 2014

Change the Weather History Date:

Saturday, November 1, 2014

  Actual Average Record
Temperature  
Mean Temperature 64 °F -  
Max Temperature 73 °F 60 °F 75 °F (1966)
Min Temperature 55 °F 40 °F 28 °F (1972)
Degree Days  
Heating Degree Days 1    
Growing Degree Days 14 (Base 50)    
Moisture  
Dew Point 36 °F    
Average Humidity 35    
Maximum Humidity 55    
Minimum Humidity 11    
Precipitation  
Precipitation 0.00 in - - ()
Sea Level Pressure  
Sea Level Pressure 29.68 in    
Wind  
Wind Speed 11 mph (South)    
Max Wind Speed 20 mph    
Max Gust Speed 36 mph    
Visibility 10 miles    
Events      
Averages and records for this station are not official NWS values.
T = Trace of Precipitation, MM = Missing Value Source: NWS Daily Summary

Daily Weather History Graph

Daily Weather History Graph

Search for Another Location

Airport or City:

Trip Planner

Search our weather history database for the weather conditions in past years. The results will help you decide how hot, cold, wet, or windy it might be!

Date:

Astronomy

Nov. 01, 2014 Rise Set
Actual Time 6:49 AM MST 5:28 PM MST
Civil Twilight 6:22 AM MST 5:55 PM MST
Nautical Twilight 5:52 AM MST 6:25 PM MST
Astronomical Twilight 5:22 AM MST 6:56 PM MST
Moon 2:16 PM MST (11/1) 12:58 AM MST (11/1)
Length of Visible Light 11h 32m
Length of Day
10h 38m
Waxing Gibbous, 69% of the Moon is Illuminated
Nov 1
Waxing Gibbous
Nov 6
Full
Nov 14
Last Quarter
Nov 22
New
Nov 29
First Quarter

Hourly Weather History & Observations

Time (MST) Temp. Dew Point Humidity Pressure Visibility Wind Dir Wind Speed Gust Speed Precip Events Conditions
12:53 AM 66.9 °F 41.0 °F 39% 29.74 in 10.0 mi SSE 11.5 mph - N/A   Overcast
1:53 AM 64.9 °F 42.1 °F 43% 29.73 in 10.0 mi SE 13.8 mph - N/A   Scattered Clouds
2:53 AM 64.9 °F 43.0 °F 45% 29.71 in 10.0 mi ESE 15.0 mph - N/A   Clear
3:53 AM 63.0 °F 43.0 °F 48% 29.70 in 10.0 mi SSE 9.2 mph - N/A   Clear
4:53 AM 62.1 °F 43.0 °F 50% 29.70 in 10.0 mi South 8.1 mph - N/A   Clear
5:53 AM 59.0 °F 43.0 °F 55% 29.71 in 10.0 mi SE 5.8 mph - N/A   Clear
6:53 AM 59.0 °F 43.0 °F 55% 29.70 in 10.0 mi ESE 6.9 mph - N/A   Clear
7:53 AM 63.0 °F 44.1 °F 50% 29.71 in 10.0 mi Calm Calm - N/A   Clear
8:53 AM 66.9 °F 43.0 °F 42% 29.71 in 10.0 mi South 17.3 mph 24.2 mph N/A   Clear
9:53 AM 71.1 °F 37.0 °F 29% 29.69 in 10.0 mi South 15.0 mph 26.5 mph N/A   Clear
10:53 AM 73.0 °F 32.0 °F 22% 29.67 in 10.0 mi South 12.7 mph 28.8 mph N/A   Clear
11:53 AM 73.0 °F 33.1 °F 23% 29.65 in 10.0 mi South 17.3 mph 26.5 mph N/A   Partly Cloudy
12:53 PM 73.0 °F 35.1 °F 25% 29.63 in 10.0 mi SSW 17.3 mph 26.5 mph N/A   Partly Cloudy
1:53 PM 73.0 °F 32.0 °F 22% 29.61 in 10.0 mi SW 13.8 mph 26.5 mph N/A   Clear
2:53 PM 73.9 °F 28.9 °F 19% 29.59 in 8.0 mi SSW 19.6 mph 35.7 mph N/A   Clear
3:53 PM 73.0 °F 30.9 °F 21% 29.59 in 10.0 mi SW 16.1 mph 27.6 mph N/A   Partly Cloudy
4:53 PM 71.1 °F 28.9 °F 21% 29.60 in 10.0 mi SW 15.0 mph 27.6 mph N/A   Mostly Cloudy
5:53 PM 68.0 °F 30.0 °F 24% 29.64 in 10.0 mi WSW 9.2 mph 18.4 mph N/A   Partly Cloudy
6:53 PM 66.0 °F 28.0 °F 24% 29.67 in 10.0 mi SW 6.9 mph - N/A   Clear
7:53 PM 63.0 °F 28.0 °F 27% 29.68 in 10.0 mi South 5.8 mph - N/A   Clear
8:53 PM 57.0 °F 36.0 °F 45% 29.70 in 10.0 mi Calm Calm - N/A   Clear
9:53 PM 55.9 °F 37.9 °F 51% 29.71 in 10.0 mi North 10.4 mph - N/A   Partly Cloudy
10:53 PM 55.9 °F 37.0 °F 49% 29.70 in 10.0 mi NW 9.2 mph - N/A   Clear
11:53 PM 55.9 °F 37.0 °F 49% 29.72 in 10.0 mi NNW 6.9 mph - N/A   Mostly Cloudy